EZY602Q LEPA-EGGD

Flight info

Callsign EZY602Q
Flight time N/A
Altitude 38000
Route DRAGO DCT PAPOS DCT UMURE DCT XIKEN DCT KARES DCT ARBEK DCT REBUL DCT USKAR DCT MOPAS DCT GIROM DCT GONUP DCT MANAK/N0430F340 DCT MUREL DCT NOZHU/N0443F370 DCT SHIRI DCT TOJAQ
Aircraft A319/M-SDE3FGHIRWY/LB1

Departure

Time N/A
Airport Palma de Mallorca Airport (LEPA)

Arrival

Time 2026-05-03 22:19
Airport Bristol Airport (EGGD)
Time Latitude Longitude Altitude Speed Heading
2026-05-03 20:40 40.30773 1.70905 25097 ft 482 kts 331°
2026-05-03 20:40 40.33824 1.69069 25362 ft 483 kts 331°
2026-05-03 20:40 40.36885 1.67228 25620 ft 485 kts 331°
2026-05-03 20:41 40.39953 1.65375 25870 ft 486 kts 331°
2026-05-03 20:41 40.43024 1.63517 26221 ft 485 kts 331°
2026-05-03 20:41 40.46085 1.61664 26608 ft 484 kts 331°
2026-05-03 20:41 40.49139 1.59815 26994 ft 483 kts 331°
2026-05-03 20:42 40.52188 1.57969 27369 ft 482 kts 331°
2026-05-03 20:42 40.55232 1.56123 27758 ft 481 kts 331°
2026-05-03 20:42 40.58270 1.54281 28160 ft 480 kts 331°
2026-05-03 20:42 40.61297 1.52443 28601 ft 479 kts 331°
2026-05-03 20:43 40.64318 1.50609 29025 ft 477 kts 331°
2026-05-03 20:43 40.67327 1.48783 29462 ft 476 kts 331°
2026-05-03 20:43 40.70336 1.46954 29890 ft 475 kts 331°
2026-05-03 20:43 40.73332 1.45128 30300 ft 474 kts 331°
2026-05-03 20:44 40.76318 1.43306 30673 ft 472 kts 331°
2026-05-03 20:44 40.79295 1.41482 31053 ft 471 kts 330°
2026-05-03 20:44 40.82265 1.39656 31432 ft 470 kts 330°
2026-05-03 20:44 40.85224 1.37836 31805 ft 469 kts 330°
2026-05-03 20:45 40.88181 1.36017 32196 ft 468 kts 330°
2026-05-03 20:45 40.91131 1.34202 32580 ft 468 kts 330°
2026-05-03 20:45 40.94083 1.32388 32888 ft 469 kts 330°
2026-05-03 20:45 40.97041 1.30572 33239 ft 468 kts 330°
2026-05-03 20:46 40.99997 1.28758 33622 ft 468 kts 330°
2026-05-03 20:46 41.02943 1.26950 34002 ft 467 kts 330°
2026-05-03 20:46 41.05887 1.25139 34356 ft 466 kts 330°
2026-05-03 20:46 41.08821 1.23330 34705 ft 464 kts 330°
2026-05-03 20:47 41.11740 1.21527 35063 ft 463 kts 329°
2026-05-03 20:47 41.14658 1.19720 35402 ft 462 kts 329°
2026-05-03 20:47 41.17560 1.18002 35695 ft 465 kts 334°
2026-05-03 20:47 41.20677 1.16775 36012 ft 470 kts 343°
2026-05-03 20:48 41.23930 1.16177 36322 ft 475 kts 351°
2026-05-03 20:48 41.27222 1.15835 36623 ft 474 kts 350°
2026-05-03 20:48 41.30505 1.15492 36909 ft 473 kts 350°
2026-05-03 20:48 41.33779 1.15149 37201 ft 472 kts 350°
2026-05-03 20:49 41.37054 1.14810 37479 ft 471 kts 351°
2026-05-03 20:49 41.40322 1.14473 37764 ft 471 kts 350°
2026-05-03 20:49 41.43599 1.14128 37982 ft 471 kts 350°
2026-05-03 20:50 41.50103 1.13435 38024 ft 469 kts 350°
2026-05-03 20:50 41.56612 1.12742 38034 ft 469 kts 350°
2026-05-03 20:51 41.62017 1.12171 38024 ft 469 kts 350°
2026-05-03 20:51 41.68516 1.11487 38022 ft 468 kts 350°
2026-05-03 20:52 41.75012 1.10796 38020 ft 469 kts 350°
2026-05-03 20:52 41.81516 1.10108 38030 ft 469 kts 351°
2026-05-03 20:53 41.88034 1.09416 38020 ft 470 kts 350°
2026-05-03 20:53 41.94554 1.08711 38017 ft 470 kts 350°
2026-05-03 20:54 42.01078 1.08008 38031 ft 471 kts 350°
2026-05-03 20:54 42.10881 1.06957 38030 ft 472 kts 350°
2026-05-03 20:55 42.17428 1.06254 38035 ft 472 kts 351°
2026-05-03 20:55 42.23975 1.05549 38054 ft 472 kts 351°
2026-05-03 20:56 42.30523 1.04849 38058 ft 472 kts 351°
2026-05-03 20:56 42.36965 1.03774 38051 ft 468 kts 345°
2026-05-03 20:57 42.43370 1.02183 38068 ft 468 kts 344°
2026-05-03 20:57 42.49764 1.00534 38055 ft 468 kts 344°
2026-05-03 20:58 42.56163 0.98914 38048 ft 467 kts 345°
2026-05-03 20:58 42.62561 0.97302 38047 ft 468 kts 345°
2026-05-03 20:59 42.68967 0.95687 38039 ft 469 kts 345°
2026-05-03 20:59 42.75379 0.94056 38021 ft 469 kts 345°
2026-05-03 21:00 42.80707 0.92696 37996 ft 469 kts 345°
2026-05-03 21:00 42.88203 0.90791 38000 ft 469 kts 345°
2026-05-03 21:01 42.94623 0.89161 38005 ft 469 kts 345°
2026-05-03 21:01 43.01039 0.87519 38000 ft 469 kts 345°
2026-05-03 21:02 43.07463 0.85870 37994 ft 470 kts 345°
2026-05-03 21:02 43.13895 0.84217 37983 ft 470 kts 345°
2026-05-03 21:03 43.20328 0.82562 37981 ft 471 kts 345°
2026-05-03 21:03 43.26770 0.80908 37984 ft 471 kts 345°
2026-05-03 21:04 43.33215 0.79243 37978 ft 471 kts 344°
2026-05-03 21:04 43.39661 0.77576 37975 ft 472 kts 344°
2026-05-03 21:05 43.46054 0.75732 37990 ft 467 kts 336°
2026-05-03 21:05 43.51999 0.72427 37975 ft 459 kts 330°
2026-05-03 21:06 43.57875 0.68957 37975 ft 460 kts 330°
2026-05-03 21:06 43.63757 0.65487 37985 ft 460 kts 331°
2026-05-03 21:07 43.69647 0.62013 37979 ft 460 kts 331°
2026-05-03 21:07 43.75497 0.58551 37976 ft 461 kts 331°
2026-05-03 21:08 43.81431 0.55030 37976 ft 461 kts 330°
2026-05-03 21:08 43.87286 0.51549 37982 ft 461 kts 330°
2026-05-03 21:09 43.93223 0.48004 37978 ft 462 kts 331°
2026-05-03 21:09 43.99087 0.44504 37978 ft 462 kts 331°
2026-05-03 21:10 44.04991 0.40973 37987 ft 462 kts 331°
2026-05-03 21:10 44.10895 0.37428 38004 ft 462 kts 330°
2026-05-03 21:11 44.16799 0.33866 38000 ft 462 kts 330°
2026-05-03 21:11 44.22701 0.30311 37992 ft 462 kts 330°
2026-05-03 21:12 44.28605 0.26748 37985 ft 462 kts 330°
2026-05-03 21:12 44.34504 0.23175 37987 ft 462 kts 330°
2026-05-03 21:13 44.40408 0.19592 37993 ft 462 kts 330°
2026-05-03 21:13 44.46310 0.16006 37999 ft 463 kts 330°
2026-05-03 21:14 44.52227 0.12410 37983 ft 464 kts 330°
2026-05-03 21:14 44.58148 0.08793 37978 ft 464 kts 330°
2026-05-03 21:15 44.64069 0.05165 37989 ft 465 kts 330°
2026-05-03 21:15 44.69997 0.01527 37987 ft 465 kts 330°
2026-05-03 21:16 44.75934 -0.02124 37984 ft 466 kts 331°
2026-05-03 21:16 44.81845 -0.05770 37969 ft 468 kts 331°
2026-05-03 21:17 44.86844 -0.08867 37964 ft 469 kts 331°
2026-05-03 21:17 44.93803 -0.13167 37967 ft 470 kts 331°
2026-05-03 21:18 44.99794 -0.16879 37984 ft 470 kts 331°
2026-05-03 21:18 45.05788 -0.20602 37988 ft 471 kts 331°
2026-05-03 21:19 45.11782 -0.24334 37982 ft 471 kts 331°
2026-05-03 21:19 45.17775 -0.28087 37976 ft 471 kts 331°
2026-05-03 21:20 45.23770 -0.31842 37998 ft 471 kts 331°
2026-05-03 21:20 45.29773 -0.35608 37994 ft 472 kts 330°
2026-05-03 21:21 45.35777 -0.39381 37975 ft 472 kts 330°
2026-05-03 21:21 45.41780 -0.43170 37976 ft 472 kts 330°
2026-05-03 21:22 45.47785 -0.46973 37971 ft 473 kts 330°
2026-05-03 21:22 45.53795 -0.50782 37968 ft 473 kts 330°
2026-05-03 21:23 45.59796 -0.54576 37987 ft 473 kts 330°
2026-05-03 21:23 45.65771 -0.58376 37971 ft 473 kts 330°
2026-05-03 21:24 45.71788 -0.62226 37964 ft 474 kts 330°
2026-05-03 21:24 45.77812 -0.66084 37977 ft 475 kts 330°
2026-05-03 21:25 45.83844 -0.69946 37973 ft 475 kts 330°
2026-05-03 21:25 45.89881 -0.73819 37969 ft 475 kts 330°
2026-05-03 21:26 45.95915 -0.77701 37969 ft 475 kts 330°
2026-05-03 21:26 46.01948 -0.81608 37989 ft 476 kts 330°
2026-05-03 21:27 46.07993 -0.85515 37978 ft 476 kts 330°
2026-05-03 21:27 46.14040 -0.89438 37972 ft 477 kts 330°
2026-05-03 21:28 46.20089 -0.93376 37981 ft 477 kts 330°
2026-05-03 21:28 46.26027 -0.97607 37986 ft 475 kts 327°
2026-05-03 21:29 46.31793 -1.02234 37984 ft 474 kts 325°
2026-05-03 21:29 46.37530 -1.06933 37994 ft 474 kts 326°
2026-05-03 21:30 46.43307 -1.11534 37988 ft 474 kts 326°
2026-05-03 21:30 46.49071 -1.16063 38000 ft 474 kts 326°
2026-05-03 21:31 46.54862 -1.20640 38003 ft 474 kts 326°
2026-05-03 21:31 46.60656 -1.25242 38010 ft 474 kts 326°
2026-05-03 21:32 46.66446 -1.29859 38010 ft 475 kts 326°
2026-05-03 21:32 46.72236 -1.34499 38008 ft 475 kts 326°
2026-05-03 21:33 46.78026 -1.39153 38010 ft 475 kts 326°
2026-05-03 21:33 46.83822 -1.43816 38009 ft 476 kts 326°
2026-05-03 21:34 46.89619 -1.48483 38002 ft 476 kts 326°
2026-05-03 21:34 46.95417 -1.53162 37996 ft 476 kts 326°
2026-05-03 21:35 47.01212 -1.57847 37992 ft 476 kts 326°
2026-05-03 21:35 47.06964 -1.62522 37981 ft 476 kts 326°
2026-05-03 21:36 47.12755 -1.67237 38003 ft 476 kts 326°
2026-05-03 21:36 47.18545 -1.71962 38008 ft 476 kts 326°
2026-05-03 21:37 47.24336 -1.76696 37990 ft 476 kts 326°
2026-05-03 21:37 47.30126 -1.81427 37986 ft 476 kts 326°
2026-05-03 21:38 47.35905 -1.86183 37974 ft 476 kts 326°
2026-05-03 21:38 47.41680 -1.90955 37982 ft 476 kts 326°
2026-05-03 21:39 47.47455 -1.95728 37980 ft 476 kts 326°
2026-05-03 21:39 47.53232 -2.00505 37977 ft 476 kts 326°
2026-05-03 21:40 47.59006 -2.05291 37985 ft 476 kts 326°
2026-05-03 21:40 47.63802 -2.09284 37980 ft 476 kts 326°
2026-05-03 21:41 47.70510 -2.14883 37986 ft 476 kts 327°
2026-05-03 21:41 47.76274 -2.19709 37981 ft 476 kts 327°
2026-05-03 21:42 47.81108 -2.23760 37992 ft 476 kts 327°
2026-05-03 21:42 47.86876 -2.28606 37985 ft 476 kts 327°
2026-05-03 21:43 47.92597 -2.33437 37981 ft 476 kts 327°
2026-05-03 21:43 47.98353 -2.38304 37978 ft 476 kts 327°
2026-05-03 21:44 48.04106 -2.43179 37981 ft 475 kts 327°
2026-05-03 21:44 48.09859 -2.48057 37980 ft 475 kts 327°
2026-05-03 21:45 48.15611 -2.52950 37979 ft 476 kts 327°
2026-05-03 21:45 48.21363 -2.57862 37999 ft 476 kts 327°
2026-05-03 21:46 48.27106 -2.62785 37991 ft 476 kts 327°
2026-05-03 21:46 48.32854 -2.67715 37988 ft 476 kts 327°
2026-05-03 21:47 48.38601 -2.72660 37990 ft 476 kts 327°
2026-05-03 21:47 48.44341 -2.77614 37998 ft 476 kts 327°
2026-05-03 21:48 48.50077 -2.82579 37989 ft 475 kts 327°
2026-05-03 21:48 48.55804 -2.87550 37994 ft 475 kts 327°
2026-05-03 21:49 48.61529 -2.92527 37985 ft 475 kts 327°
2026-05-03 21:49 48.67250 -2.97519 37986 ft 475 kts 327°
2026-05-03 21:50 48.72964 -3.02523 37981 ft 475 kts 327°
2026-05-03 21:50 48.78682 -3.07534 37997 ft 474 kts 327°
2026-05-03 21:51 48.84394 -3.12549 37991 ft 474 kts 327°
2026-05-03 21:51 48.90106 -3.17578 37984 ft 474 kts 327°
2026-05-03 21:52 48.95812 -3.22611 37981 ft 474 kts 327°
2026-05-03 21:52 49.01511 -3.27663 37981 ft 474 kts 327°
2026-05-03 21:53 49.07205 -3.32726 37981 ft 474 kts 327°
2026-05-03 21:53 49.12856 -3.37769 37971 ft 474 kts 327°
2026-05-03 21:54 49.18587 -3.42875 37972 ft 474 kts 327°
2026-05-03 21:54 49.24238 -3.47933 37975 ft 474 kts 327°
2026-05-03 21:55 49.29961 -3.53079 37976 ft 474 kts 327°
2026-05-03 21:55 49.35936 -3.57228 37989 ft 476 kts 338°
2026-05-03 21:56 49.42151 -3.60757 37980 ft 476 kts 338°
2026-05-03 21:56 49.48629 -3.62702 37977 ft 479 kts 356°
2026-05-03 21:57 49.55292 -3.63081 37969 ft 479 kts 356°
2026-05-03 21:57 49.61963 -3.63431 37969 ft 480 kts 356°
2026-05-03 21:58 49.68631 -3.63783 37962 ft 480 kts 356°
2026-05-03 21:58 49.75304 -3.64154 37963 ft 480 kts 356°
2026-05-03 21:59 49.81978 -3.64537 37961 ft 480 kts 356°
2026-05-03 21:59 49.88649 -3.64912 37961 ft 480 kts 356°
2026-05-03 22:00 49.95320 -3.65282 37968 ft 480 kts 356°
2026-05-03 22:00 50.01997 -3.65652 37964 ft 480 kts 356°
2026-05-03 22:01 50.08627 -3.66030 37963 ft 480 kts 356°
2026-05-03 22:01 50.15292 -3.66405 37967 ft 479 kts 356°
2026-05-03 22:02 50.21957 -3.66781 37826 ft 480 kts 356°
2026-05-03 22:02 50.25300 -3.66971 37035 ft 483 kts 356°
2026-05-03 22:02 50.28647 -3.66913 36578 ft 477 kts
2026-05-03 22:03 50.31864 -3.65950 36338 ft 466 kts 11°
2026-05-03 22:03 50.35028 -3.64890 35476 ft 466 kts 11°
2026-05-03 22:03 50.38201 -3.63820 34556 ft 466 kts 12°
2026-05-03 22:03 50.41370 -3.62741 33579 ft 466 kts 12°
2026-05-03 22:04 50.44528 -3.61658 32556 ft 463 kts 12°
2026-05-03 22:04 50.47670 -3.60574 31468 ft 462 kts 12°
2026-05-03 22:04 50.50807 -3.59488 30382 ft 462 kts 12°
2026-05-03 22:04 50.53949 -3.58394 29112 ft 463 kts 12°
2026-05-03 22:05 50.57095 -3.57299 27860 ft 465 kts 12°
2026-05-03 22:05 50.60264 -3.56199 26577 ft 467 kts 12°
2026-05-03 22:05 50.63445 -3.55096 25328 ft 470 kts 12°
2026-05-03 22:05 50.66655 -3.53983 24101 ft 473 kts 12°
2026-05-03 22:06 50.69853 -3.52874 22807 ft 468 kts 12°
2026-05-03 22:06 50.73015 -3.51775 21566 ft 462 kts 12°
2026-05-03 22:06 50.76123 -3.50692 20664 ft 453 kts 12°
2026-05-03 22:06 50.79171 -3.49627 19750 ft 445 kts 12°
2026-05-03 22:07 50.82169 -3.48573 18856 ft 438 kts 12°
2026-05-03 22:07 50.85118 -3.47536 17958 ft 430 kts 12°
2026-05-03 22:07 50.88019 -3.46515 17086 ft 424 kts 12°
2026-05-03 22:07 50.90881 -3.45513 16286 ft 418 kts 12°
2026-05-03 22:08 50.93677 -3.44534 15946 ft 402 kts 13°
2026-05-03 22:08 50.96334 -3.43601 15805 ft 381 kts 13°
2026-05-03 22:08 50.98852 -3.42716 15686 ft 361 kts 13°
2026-05-03 22:08 51.01245 -3.41850 15461 ft 346 kts 15°
2026-05-03 22:09 51.03454 -3.40312 14477 ft 352 kts 35°
2026-05-03 22:09 51.05230 -3.37611 13337 ft 359 kts 56°
2026-05-03 22:09 51.06565 -3.34262 12058 ft 369 kts 60°
2026-05-03 22:10 51.09281 -3.27224 10982 ft 365 kts 59°
2026-05-03 22:10 51.10569 -3.23906 10850 ft 340 kts 59°
2026-05-03 22:10 51.11774 -3.20812 10725 ft 319 kts 59°
2026-05-03 22:10 51.12931 -3.17901 10513 ft 304 kts 58°
2026-05-03 22:11 51.14074 -3.15138 10277 ft 298 kts 57°
2026-05-03 22:11 51.15221 -3.12418 10037 ft 294 kts 57°
2026-05-03 22:11 51.16360 -3.09725 9933 ft 292 kts 57°
2026-05-03 22:11 51.17496 -3.07028 9942 ft 293 kts 57°
2026-05-03 22:12 51.18628 -3.04328 9938 ft 293 kts 57°
2026-05-03 22:12 51.19757 -3.01629 9943 ft 293 kts 57°
2026-05-03 22:12 51.20884 -2.98925 9942 ft 293 kts 57°
2026-05-03 22:12 51.22009 -2.96216 9941 ft 293 kts 58°
2026-05-03 22:13 51.23141 -2.93484 9405 ft 301 kts 58°
2026-05-03 22:13 51.24316 -2.90642 8550 ft 312 kts 57°
2026-05-03 22:13 51.25527 -2.87710 7692 ft 321 kts 57°
2026-05-03 22:13 51.26776 -2.84691 6843 ft 329 kts 57°
2026-05-03 22:14 51.28032 -2.81656 6320 ft 326 kts 57°
2026-05-03 22:14 51.29272 -2.78659 5870 ft 319 kts 57°
2026-05-03 22:14 51.30476 -2.75742 5479 ft 310 kts 57°
2026-05-03 22:14 51.31650 -2.72894 5067 ft 303 kts 57°
2026-05-03 22:15 51.32797 -2.70108 4658 ft 297 kts 57°
2026-05-03 22:15 51.33921 -2.67379 4248 ft 290 kts 57°
2026-05-03 22:15 51.35005 -2.64741 3859 ft 278 kts 57°
2026-05-03 22:15 51.36041 -2.62212 3484 ft 265 kts 57°
2026-05-03 22:16 51.37028 -2.59799 3125 ft 253 kts 57°
2026-05-03 22:16 51.37971 -2.57514 2786 ft 239 kts 54°
2026-05-03 22:16 51.39223 -2.55948 2461 ft 227 kts 17°
2026-05-03 22:16 51.40709 -2.56082 2199 ft 216 kts 334°
2026-05-03 22:17 51.41673 -2.57743 2003 ft 202 kts 288°
2026-05-03 22:17 51.41583 -2.59828 1825 ft 184 kts 240°
2026-05-03 22:17 51.40851 -2.61400 1608 ft 170 kts 234°
2026-05-03 22:17 51.40216 -2.62925 1398 ft 160 kts 235°
2026-05-03 22:18 51.39631 -2.64324 1191 ft 143 kts 233°
2026-05-03 22:18 51.38963 -2.65399 1153 ft 133 kts 223°
2026-05-03 22:18 51.38545 -2.66737 1127 ft 136 kts 250°
2026-05-03 22:18 51.38399 -2.68222 961 ft 134 kts 261°
2026-05-03 22:19 51.38351 -2.69701 745 ft 132 kts 265°
2026-05-03 22:19 51.38299 -2.71141 605 ft 117 kts 266°
2026-05-03 22:19 51.38252 -2.72292 633 ft 93 kts 267°
2026-05-03 22:19 51.38226 -2.72956 628 ft 46 kts 266°
2026-05-03 22:20 51.38270 -2.73344 620 ft 27 kts 347°
2026-05-03 22:20 51.38388 -2.73161 608 ft 28 kts 85°
2026-05-03 22:20 51.38402 -2.72849 606 ft 29 kts 88°
2026-05-03 22:20 51.38412 -2.72533 615 ft 27 kts 86°
2026-05-03 22:21 51.38425 -2.72232 608 ft 28 kts 86°
2026-05-03 22:21 51.38431 -2.71914 606 ft 29 kts 91°
2026-05-03 22:21 51.38439 -2.71642 613 ft 7 kts 86°
2026-05-03 22:21 51.38442 -2.71571 619 ft 5 kts 86°
2026-05-03 22:22 51.38444 -2.71510 615 ft 6 kts 85°
2026-05-03 22:22 51.38450 -2.71472 612 ft 1 kts 48°
2026-05-03 22:22 51.38458 -2.71469 621 ft 2 kts
2026-05-03 22:22 51.38498 -2.71477 612 ft 9 kts 354°
2026-05-03 22:23 51.38550 -2.71482 612 ft 0 kts 358°
2026-05-03 22:23 51.38551 -2.71482 612 ft 0 kts 358°
2026-05-03 22:23 51.38550 -2.71482 612 ft 1 kts 358°
2026-05-03 22:23 51.38536 -2.71480 612 ft 0 kts 355°
2026-05-03 22:24 51.38542 -2.71480 612 ft 2 kts 357°
2026-05-03 22:24 51.38547 -2.71481 612 ft 0 kts 357°